Location: B?dimalle
(17.1788°N, 80.5377°E)
Time: 20:12:11
(UTC+00:00)

Altair - Visible Passes

Search period start: 17 February 2026 00:00
Search period end: 27 February 2026 00:00
Orbit: 1502 x 1682 km, 47.2° (Epoch: 17 February)

Date Brightness Start Highest point End Pass type
(mag) Time Alt. Az. Time Alt. Az. Time Alt. Az.
17 Feb 9.4 21:12:12 16° NE 21:12:12 16° NE 21:13:44 10° NE visible
17 Feb 8.3 23:10:14 27° NNW 23:10:14 27° NNW 23:17:15 10° NNE visible
18 Feb 8.5 22:46:38 27° NNW 22:46:38 27° NNW 22:52:11 10° NNE visible
19 Feb 8.7 22:22:56 24° N 22:22:56 24° N 22:27:05 10° NNE visible
20 Feb 9.0 21:59:11 20° NNE 21:59:11 20° NNE 22:02:00 10° NNE visible
20 Feb 9.2 23:59:58 10° NNW 00:01:03 10° NNW 00:02:09 10° N visible
21 Feb 9.3 21:35:23 15° NNE 21:35:23 15° NNE 21:36:54 10° NNE visible
21 Feb 9.1 23:33:24 10° NNW 23:35:30 11° NNW 23:37:55 10° N visible
22 Feb 9.6 21:11:32 11° NNE 21:11:32 11° NNE 21:11:47 10° NNE visible
22 Feb 9.1 23:09:32 12° NNW 23:09:58 12° NNW 23:13:15 10° N visible
23 Feb 9.2 22:45:38 13° NNW 22:45:38 13° NNW 22:48:27 10° N visible
24 Feb 9.3 22:21:42 13° N 22:21:42 13° N 22:23:34 10° N visible
25 Feb 9.4 21:57:45 12° N 21:57:45 12° N 21:58:39 10° N visible
